sat.trackr.live / text

‹ back to catalog

GAOFEN-12 02

NORAD 48079 · 2021-026A

PAYLOAD ACTIVE UNKNOWN

§ Identity

Operator
Country
PRC
Launch date
2021-03-30
Launch site
JSC
Launch vehicle
Mass (kg)
RCS (m²)

Purposes: earth_obs

External: N2YO · Heavens-Above · Gunter

§ Orbital elements

Epoch: 2026-05-25T05:50:35.138400Z

Period
97.28 min
Inclination
97.9921°
Eccentricity
0.0003806
Mean motion
14.80274730 rev/d
Perigee alt
625.8 km
Apogee alt
631.1 km
Semi-major
7,006.6 km
B*
4.9963e-5
RAAN
143.5190°
Arg perigee
324.1459°
Mean anomaly
35.9497°
Rev number
27,836

§ Raw data

GAOFEN-12 021 48079U 21026A   26145.24346225  .00000328  00000+0  49963-4 0  99922 48079  97.9921 143.5190 0003806 324.1459  35.9497 14.80274730278364

JSON: /api/v1/satellites/48079 · /tle

For live sub-satellite position, see the globe view (requires WebGL).

§ Visibility from observer

Set your observer location to see the next 7 days of passes ≥ 10°. The values pass through the URL so the page stays shareable.

No JS? Fill the form by hand. The geolocation button needs JavaScript.